COSMOS 2251 DEB, 38001

Orbit data source: Space-Track

COSMOS 2251 DEB, 38001 is space debris in LEO originally from a launch on Wed, 16 Jun 1993 UTC launched from the Plesetsk Missile And Space Complex (PKMTR). The debris from Iridium 33, an American commercial communications satellite, has been tracked extensively since its accidental collision with the defunct Russian satellite Cosmos 2251 in 2009. This event, occurring at high speed in low Earth orbit (LEO), generated thousands of pieces of space debris, significantly increasing the risk of further collisions. The Iridium 33 debris cloud has impacted space traffic management and orbital debris mitigation strategies, making it a subject of ongoing study in space situational awareness.

Loading next visibility...
Identifier
38001, 1993-036BRC
Orbit
LEO
Country
Flag of CISCIS
Related business
Manufacturer
Unknown
Mission
Spacecraft
Bus & Motor
Unknown
Mass
Unknown
Launch date (UTC)
1993-06-16 (33 years ago)
Launch vehicle
Unknown
Launch site
Plesetsk Missile And Space Complex (PKMTR)
Object type
Payload
Rocket body
Debris
Shape & HBR
Unknown shape, 0.1 m
Radar Cross Section
Small (<0.1 m²)

Expand to show TLE details & history
Last TLE update: 1 day ago

TLE from 1 day ago
0 COSMOS 2251 DEB
1 38001U 93036BRC 26123.23618316  .00003986  00000-0  50528-3 0  9996
2 38001  74.0008 213.0072 0064024 326.4990  63.4272 14.80654314768019
Epoch: 2026-05-03T05:40Z
TLE epoch observation values (Epoch: 2026-05-03T05:40:06.225Z)
Latitude
29.33845°
Longitude
-83.93811°
Altitude
610.795 km
Speed
7.567 km/s
True Right ascension
14h 48m 55s
True Declination
29° 11' 19"
Sunlit
Object was in full shadow at epoch
Visualization orbit readout
Latitude
Unknown
Longitude
Unknown
Altitude
Unknown
Speed
Unknown
Apparent Right ascension
Unknown
Apparent Declination
Unknown
Sunlit
N/A
Visualization observer readout
Local Sidereal Time
16:40:26
Azimuth
Unknown
Elevation
Unknown
Doppler factor
Unknown
Orbital elements
Apogee altitude
669.673 km
Perigee altitude
580.001 km
Semi-major axis
7,002.974 km
Eccentricity
0.0064
Inclination
74.0008°
RAAN
213.0072°
Arg. of periapsis
326.499°
True anomaly
64.0857°
Mean anomaly
63.4272°
Eccentric anomaly
63.75622°
Mean motion
3.70356 °/min
Orbital period
97.2 mins
BSTAR
0.00050528
Loading maneuver chart data...
Computing Atmospheric mass density...
Loading historical data...
Loading historical data...
Loading historical data...
Loading historical data...
Loading historical data...
Loading historical data...
Loading historical data...

Documentation

Showing up to 5 results
|